Marchicora — V2OQ7 — position and weather

sailwx.info

Track history (hours):
 
Tides and Currents Weather Stations Pressure Air Temp Water Temp Dewpoint Dewpoint Depression Visibility Wind Speed Wind Dir Waves Ship Positions

Marchicora

Last reported at 2014-Sep-18 09:33 UTC. Time now 2014-Sep-18 09:42 UTC.
Position N 51°23' E 001°54'.

Length 153 m; draft 9.8 m.

Type: Cargo ship. MMSI: 304653000.

Date/timePositionNaut miles runAvg speedWind from/ knotsBaromVisibWave heightAir tempDewpointWater temp
2014-Sep-18 09:33N 51°23' E 001°54'1212.1
2014-Sep-18 08:33N 51°33' E 002°06'1212.5
2014-Sep-18 07:34N 51°42' E 002°19'1212.5
2014-Sep-18 06:33N 51°52' E 002°32'1313.3
2014-Sep-18 05:33N 52°02' E 002°46'1413.7
2014-Sep-18 04:33N 52°12' E 003°01'1413.5
2014-Sep-18 03:33N 52°25' E 003°07'1413.8
2014-Sep-18 02:33N 52°39' E 003°11'1413.5
2014-Sep-18 01:32N 52°52' E 003°15'1812.7
2014-Sep-18 00:08N 53°09' E 003°24'2212.1
2014-Sep-17 22:20N 53°30' E 003°34'4712.3
2014-Sep-17 18:33N 54°08' E 004°21'15012.5
2014-Sep-17 06:33N 56°19' E 006°30'2512.6
2014-Sep-17 04:32N 56°40' E 006°54'1312.8
2014-Sep-17 03:31N 56°52' E 007°05'9012.9
2014-Sep-16 20:33N 57°45' E 009°19'4312.9
2014-Sep-16 17:14N 57°51' E 010°39'811.2
2014-Sep-16 16:33N 57°45' E 010°48'7 5.0
2014-Sep-16 15:10N 57°42' E 010°37'0 0.0
2014-Sep-16 12:31N 57°42' E 010°36'0 0.0
2014-Sep-16 10:22N 57°42' E 010°36'0 0.0
2014-Sep-16 09:16N 57°42' E 010°36'0 0.0
2014-Sep-16 08:25N 57°42' E 010°36'0 0.1
2014-Sep-16 07:30N 57°42' E 010°37'5 5.2
2014-Sep-16 06:33N 57°41' E 010°46'1212.6
2014-Sep-16 05:34N 57°37' E 011°08'1413.7
2014-Sep-16 04:33N 57°28' E 011°27'1414.0
2014-Sep-16 03:33N 57°15' E 011°37'1414.0
2014-Sep-16 02:33N 57°02' E 011°45'1313.5
2014-Sep-16 01:33N 56°49' E 011°54'1211.8
2014-Sep-16 00:33N 56°38' E 011°47'1312.7
2014-Sep-15 23:33N 56°27' E 011°35'1312.3
2014-Sep-15 22:31N 56°16' E 011°23'2813.3
2014-Sep-15 20:25N 55°53' E 010°55'3912.6
2014-Sep-15 17:19N 55°15' E 011°06'1012.9
2014-Sep-15 16:32N 55°05' E 011°03'1212.2
2014-Sep-15 15:30N 54°53' E 010°54'1212.6
2014-Sep-15 14:33N 54°41' E 010°55'1414.1
2014-Sep-15 13:33N 54°34' E 011°16'1413.9
2014-Sep-15 12:33N 54°29' E 011°38'1313.1
2014-Sep-15 11:33N 54°26' E 011°60'1111.2
2014-Sep-15 10:33N 54°33' E 012°15'1212.4
2014-Sep-15 09:33N 54°42' E 012°30'1312.6
2014-Sep-15 08:33N 54°49' E 012°49'1313.4
2014-Sep-15 07:33N 54°53' E 013°10'1413.6
2014-Sep-15 06:33N 54°57' E 013°33'1313.2
2014-Sep-15 05:33N 55°02' E 013°54'1312.6
2014-Sep-15 04:34N 55°09' E 014°12'1313.2
2014-Sep-15 03:33N 55°20' E 014°27'1313.0
2014-Sep-15 02:34N 55°28' E 014°44'1313.2
2014-Sep-15 01:33N 55°35' E 015°03'1413.1
2014-Sep-15 00:29N 55°42' E 015°25'3013.5
2014-Sep-14 22:15N 55°58' E 016°11'1013.8
2014-Sep-14 21:30N 56°03' E 016°27'1313.1
2014-Sep-14 20:28N 56°12' E 016°46'1213.5
2014-Sep-14 19:32N 56°23' E 016°54'2813.3
2014-Sep-14 17:25N 56°49' E 017°12'1113.2
2014-Sep-14 16:33N 57°00' E 017°19'1313.3
2014-Sep-14 15:33N 57°13' E 017°28'1313.1
2014-Sep-14 14:33N 57°25' E 017°38'1313.1
2014-Sep-14 13:32N 57°37' E 017°49'1313.1
2014-Sep-14 12:33N 57°48' E 018°01'1413.4
2014-Sep-14 11:32N 57°59' E 018°15'  
Track history (hours):
 
Tides and Currents Weather Stations Pressure Air Temp Water Temp Dewpoint Dewpoint Depression Visibility Wind Speed Wind Dir Waves Ship Positions

Marchicora

Last reported at 2014-Sep-18 09:33 UTC. Time now 2014-Sep-18 09:42 UTC.
Position N 51°23' E 001°54'.

Length 153 m; draft 9.8 m.

Type: Cargo ship. MMSI: 304653000.

Date/timePositionNaut miles runAvg speedWind from/ knotsBaromVisibWave heightAir tempDewpointWater temp
2014-Sep-18 09:33N 51°23' E 001°54'1212.1
2014-Sep-18 08:33N 51°33' E 002°06'1212.5
2014-Sep-18 07:34N 51°42' E 002°19'1212.5
2014-Sep-18 06:33N 51°52' E 002°32'1313.3
2014-Sep-18 05:33N 52°02' E 002°46'1413.7
2014-Sep-18 04:33N 52°12' E 003°01'1413.5
2014-Sep-18 03:33N 52°25' E 003°07'1413.8
2014-Sep-18 02:33N 52°39' E 003°11'1413.5
2014-Sep-18 01:32N 52°52' E 003°15'1812.7
2014-Sep-18 00:08N 53°09' E 003°24'2212.1
2014-Sep-17 22:20N 53°30' E 003°34'4712.3
2014-Sep-17 18:33N 54°08' E 004°21'15012.5
2014-Sep-17 06:33N 56°19' E 006°30'2512.6
2014-Sep-17 04:32N 56°40' E 006°54'1312.8
2014-Sep-17 03:31N 56°52' E 007°05'9012.9
2014-Sep-16 20:33N 57°45' E 009°19'4312.9
2014-Sep-16 17:14N 57°51' E 010°39'811.2
2014-Sep-16 16:33N 57°45' E 010°48'7 5.0
2014-Sep-16 15:10N 57°42' E 010°37'0 0.0
2014-Sep-16 12:31N 57°42' E 010°36'0 0.0
2014-Sep-16 10:22N 57°42' E 010°36'0 0.0
2014-Sep-16 09:16N 57°42' E 010°36'0 0.0
2014-Sep-16 08:25N 57°42' E 010°36'0 0.1
2014-Sep-16 07:30N 57°42' E 010°37'5 5.2
2014-Sep-16 06:33N 57°41' E 010°46'1212.6
2014-Sep-16 05:34N 57°37' E 011°08'1413.7
2014-Sep-16 04:33N 57°28' E 011°27'1414.0
2014-Sep-16 03:33N 57°15' E 011°37'1414.0
2014-Sep-16 02:33N 57°02' E 011°45'1313.5
2014-Sep-16 01:33N 56°49' E 011°54'1211.8
2014-Sep-16 00:33N 56°38' E 011°47'1312.7
2014-Sep-15 23:33N 56°27' E 011°35'1312.3
2014-Sep-15 22:31N 56°16' E 011°23'2813.3
2014-Sep-15 20:25N 55°53' E 010°55'3912.6
2014-Sep-15 17:19N 55°15' E 011°06'1012.9
2014-Sep-15 16:32N 55°05' E 011°03'1212.2
2014-Sep-15 15:30N 54°53' E 010°54'1212.6
2014-Sep-15 14:33N 54°41' E 010°55'1414.1
2014-Sep-15 13:33N 54°34' E 011°16'1413.9
2014-Sep-15 12:33N 54°29' E 011°38'1313.1
2014-Sep-15 11:33N 54°26' E 011°60'1111.2
2014-Sep-15 10:33N 54°33' E 012°15'1212.4
2014-Sep-15 09:33N 54°42' E 012°30'1312.6
2014-Sep-15 08:33N 54°49' E 012°49'1313.4
2014-Sep-15 07:33N 54°53' E 013°10'1413.6
2014-Sep-15 06:33N 54°57' E 013°33'1313.2
2014-Sep-15 05:33N 55°02' E 013°54'1312.6
2014-Sep-15 04:34N 55°09' E 014°12'1313.2
2014-Sep-15 03:33N 55°20' E 014°27'1313.0
2014-Sep-15 02:34N 55°28' E 014°44'1313.2
2014-Sep-15 01:33N 55°35' E 015°03'1413.1
2014-Sep-15 00:29N 55°42' E 015°25'3013.5
2014-Sep-14 22:15N 55°58' E 016°11'1013.8
2014-Sep-14 21:30N 56°03' E 016°27'1313.1
2014-Sep-14 20:28N 56°12' E 016°46'1213.5
2014-Sep-14 19:32N 56°23' E 016°54'2813.3
2014-Sep-14 17:25N 56°49' E 017°12'1113.2
2014-Sep-14 16:33N 57°00' E 017°19'1313.3
2014-Sep-14 15:33N 57°13' E 017°28'1313.1
2014-Sep-14 14:33N 57°25' E 017°38'1313.1
2014-Sep-14 13:32N 57°37' E 017°49'1313.1
2014-Sep-14 12:33N 57°48' E 018°01'1413.4
2014-Sep-14 11:32N 57°59' E 018°15'  

Dump ship's entire track history